Location: Fort Worth, Tx
(32.7431°N, 97.3695°W)
Time: 05:53:09
(UTC-05:00)

Tiros 1 - Pass Details

Date: 19 November 2024
Orbit: 622 x 653 km, 48.4° (Epoch: 05 December)

Event Time Altitude Azimuth Distance (km) Brightness Sun altitude
Rises 20:00:08 0° 316° (NW) 2,956 11.0 -19.7°
Reaches altitude 10° 20:03:27 10° 340° (NNW) 2,050 9.8 -20.4°
Enters shadow 20:05:41 15° 8° (N) 1,757 9.2 -20.9°
